Time,TemperatureF,DewpointF,PressureIn,WindDirection,WindDirectionDegrees,WindSpeedMPH,WindSpeedGustMPH,Humidity,HourlyPrecipIn,Conditions,Clouds,dailyrainin,SolarRadiationWatts/m^2,SoftwareType,DateUTC
2013-09-23 00:05:00,55.0,49.0,-100.00,SE,135,0.0,3.0,80,0.00,,,0.00,0.000000,,2013-09-23 04:05:00,
2013-09-23 00:43:00,55.0,47.0,-100.00,SE,134,2.0,4.0,75,0.00,,,0.00,0.000000,,2013-09-23 04:43:00,
2013-09-23 00:54:00,55.0,47.0,-100.00,SE,134,2.0,4.0,75,0.00,,,0.00,0.000000,,2013-09-23 04:54:00,
2013-09-23 01:03:00,55.0,47.0,-100.00,SE,134,2.0,4.0,75,0.00,,,0.00,0.000000,,2013-09-23 05:03:00,
2013-09-23 01:43:00,54.0,47.0,-100.00,SE,129,1.0,4.0,77,0.00,,,0.00,0.000000,,2013-09-23 05:43:00,
2013-09-23 01:53:00,54.0,47.0,-100.00,SE,129,1.0,4.0,77,0.00,,,0.00,0.000000,,2013-09-23 05:53:00,
2013-09-23 02:02:00,54.0,47.0,-100.00,SE,129,1.0,4.0,77,0.00,,,0.00,0.000000,,2013-09-23 06:02:00,
2013-09-23 02:42:00,53.0,46.0,-100.00,SE,127,1.0,4.0,78,0.00,,,0.00,0.000000,,2013-09-23 06:42:00,
2013-09-23 02:52:00,53.0,46.0,-100.00,SE,127,1.0,4.0,78,0.00,,,0.00,0.000000,,2013-09-23 06:52:00,
2013-09-23 03:01:00,53.0,46.0,-100.00,SE,127,1.0,4.0,78,0.00,,,0.00,0.000000,,2013-09-23 07:01:00,
2013-09-23 03:42:00,51.0,47.0,-100.00,ESE,119,1.0,4.0,85,0.00,,,0.00,0.000000,,2013-09-23 07:42:00,
2013-09-23 03:52:00,51.0,47.0,-100.00,ESE,119,1.0,4.0,85,0.00,,,0.00,0.000000,,2013-09-23 07:52:00,
2013-09-23 04:02:00,51.0,47.0,-100.00,ESE,119,1.0,4.0,85,0.00,,,0.00,0.000000,,2013-09-23 08:02:00,
2013-09-23 04:42:00,50.0,46.0,-100.00,ESE,111,1.0,5.0,87,0.00,,,0.00,0.000000,,2013-09-23 08:42:00,
2013-09-23 04:52:00,50.0,46.0,-100.00,ESE,111,1.0,5.0,87,0.00,,,0.00,0.000000,,2013-09-23 08:52:00,
2013-09-23 05:02:00,50.0,46.0,-100.00,ESE,111,1.0,5.0,87,0.00,,,0.00,0.000000,,2013-09-23 09:02:00,
2013-09-23 05:43:00,50.0,47.0,-100.00,East,101,1.0,4.0,88,0.00,,,0.00,0.000000,,2013-09-23 09:43:00,
2013-09-23 05:53:00,50.0,47.0,-100.00,East,101,1.0,4.0,88,0.00,,,0.00,0.000000,,2013-09-23 09:53:00,
2013-09-23 06:03:00,50.0,47.0,-100.00,East,101,1.0,4.0,88,0.00,,,0.00,0.000000,,2013-09-23 10:03:00,
2013-09-23 06:43:00,48.0,46.0,-100.00,SE,133,0.0,4.0,93,0.00,,,0.00,0.000000,,2013-09-23 10:43:00,
2013-09-23 06:53:00,48.0,46.0,-100.00,SE,133,0.0,4.0,93,0.00,,,0.00,0.000000,,2013-09-23 10:53:00,
2013-09-23 07:02:00,48.0,46.0,-100.00,SE,133,0.0,4.0,93,0.00,,,0.00,0.000000,,2013-09-23 11:02:00,
2013-09-23 07:42:00,47.0,45.0,-100.00,East,100,1.0,5.0,94,0.00,,,0.00,0.000000,,2013-09-23 11:42:00,
2013-09-23 07:52:00,47.0,45.0,-100.00,East,100,1.0,5.0,94,0.00,,,0.00,0.000000,,2013-09-23 11:52:00,
2013-09-23 08:01:00,47.0,45.0,-100.00,East,100,1.0,5.0,94,0.00,,,0.00,0.000000,,2013-09-23 12:01:00,
2013-09-23 09:42:00,53.0,47.0,-100.00,SE,142,4.0,9.0,81,-99.99,,,0.00,148.000000,,2013-09-23 13:42:00,
2013-09-23 09:52:00,53.0,47.0,-100.00,SE,142,4.0,9.0,81,-99.99,,,0.00,148.000000,,2013-09-23 13:52:00,
2013-09-23 10:01:00,53.0,47.0,-100.00,SE,142,4.0,9.0,81,-99.99,,,0.00,148.000000,,2013-09-23 14:01:00,
2013-09-23 10:43:00,57.0,50.0,-100.00,SE,139,4.0,9.0,76,0.00,,,0.00,372.000000,,2013-09-23 14:43:00,
2013-09-23 10:52:00,57.0,50.0,-100.00,SE,139,4.0,9.0,76,0.00,,,0.00,372.000000,,2013-09-23 14:52:00,
2013-09-23 11:02:00,57.0,50.0,-100.00,SE,139,4.0,9.0,76,0.00,,,0.00,372.000000,,2013-09-23 15:02:00,
2013-09-23 11:43:00,63.0,51.0,-100.00,SE,139,3.0,8.0,66,0.00,,,0.00,544.000000,,2013-09-23 15:43:00,
2013-09-23 11:54:00,63.0,51.0,-100.00,SE,139,3.0,8.0,66,0.00,,,0.00,544.000000,,2013-09-23 15:54:00,
2013-09-23 12:04:00,63.0,51.0,-100.00,SE,139,3.0,8.0,66,0.00,,,0.00,544.000000,,2013-09-23 16:04:00,
2013-09-23 12:43:00,66.0,51.0,-100.00,SE,129,4.0,10.0,58,0.00,,,0.00,676.000000,,2013-09-23 16:43:00,
2013-09-23 12:53:00,66.0,51.0,-100.00,SE,129,4.0,10.0,58,0.00,,,0.00,676.000000,,2013-09-23 16:53:00,
2013-09-23 13:03:00,66.0,51.0,-100.00,SE,129,4.0,10.0,58,0.00,,,0.00,676.000000,,2013-09-23 17:03:00,
2013-09-23 13:42:00,69.0,49.0,-100.00,SSE,159,4.0,13.0,49,0.00,,,0.00,758.000000,,2013-09-23 17:42:00,
2013-09-23 13:52:00,69.0,49.0,-100.00,SSE,159,4.0,13.0,49,0.00,,,0.00,758.000000,,2013-09-23 17:52:00,
2013-09-23 14:02:00,69.0,49.0,-100.00,SSE,159,4.0,13.0,49,0.00,,,0.00,758.000000,,2013-09-23 18:02:00,
2013-09-23 14:42:00,70.0,47.0,-100.00,East,99,3.0,11.0,44,0.00,,,0.00,780.000000,,2013-09-23 18:42:00,
2013-09-23 14:52:00,70.0,47.0,-100.00,East,99,3.0,11.0,44,0.00,,,0.00,780.000000,,2013-09-23 18:52:00,
2013-09-23 15:02:00,70.0,47.0,-100.00,East,99,3.0,11.0,44,0.00,,,0.00,780.000000,,2013-09-23 19:02:00,
2013-09-23 15:42:00,73.0,50.0,-100.00,ESE,105,3.0,9.0,45,0.00,,,0.00,745.000000,,2013-09-23 19:42:00,
2013-09-23 15:53:00,73.0,50.0,-100.00,ESE,105,3.0,9.0,45,0.00,,,0.00,745.000000,,2013-09-23 19:53:00,
2013-09-23 16:02:00,73.0,50.0,-100.00,ESE,105,3.0,9.0,45,0.00,,,0.00,745.000000,,2013-09-23 20:02:00,
2013-09-23 16:42:00,73.0,48.0,-100.00,SE,124,3.0,9.0,41,0.00,,,0.00,649.000000,,2013-09-23 20:42:00,
2013-09-23 16:52:00,73.0,48.0,-100.00,SE,124,3.0,9.0,41,0.00,,,0.00,649.000000,,2013-09-23 20:52:00,
2013-09-23 17:02:00,73.0,48.0,-100.00,SE,124,3.0,9.0,41,0.00,,,0.00,649.000000,,2013-09-23 21:02:00,
2013-09-23 17:44:00,74.0,48.0,-100.00,SSE,151,4.0,11.0,40,0.00,,,0.00,506.000000,,2013-09-23 21:44:00,
2013-09-23 17:54:00,74.0,48.0,-100.00,SSE,151,4.0,11.0,40,0.00,,,0.00,506.000000,,2013-09-23 21:54:00,
2013-09-23 18:04:00,74.0,48.0,-100.00,SSE,151,4.0,11.0,40,0.00,,,0.00,506.000000,,2013-09-23 22:04:00,
2013-09-23 18:43:00,73.0,49.0,-100.00,SE,126,2.0,7.0,42,0.00,,,0.00,329.000000,,2013-09-23 22:43:00,
2013-09-23 18:54:00,73.0,49.0,-100.00,SE,126,2.0,7.0,42,0.00,,,0.00,329.000000,,2013-09-23 22:54:00,
2013-09-23 19:02:00,73.0,49.0,-100.00,SE,126,2.0,7.0,42,0.00,,,0.00,329.000000,,2013-09-23 23:02:00,
2013-09-23 19:42:00,67.0,49.0,-100.00,SE,130,1.0,7.0,52,0.00,,,0.00,120.000000,,2013-09-23 23:42:00,
2013-09-23 19:54:00,67.0,49.0,-100.00,SE,130,1.0,7.0,52,0.00,,,0.00,120.000000,,2013-09-23 23:54:00,
2013-09-23 20:01:00,67.0,49.0,-100.00,SE,130,1.0,7.0,52,0.00,,,0.00,120.000000,,2013-09-24 00:01:00,
2013-09-23 20:43:00,62.0,48.0,-100.00,SE,136,1.0,5.0,60,0.00,,,0.00,6.000000,,2013-09-24 00:43:00,
2013-09-23 20:52:00,62.0,48.0,-100.00,SE,136,1.0,5.0,60,0.00,,,0.00,6.000000,,2013-09-24 00:52:00,
2013-09-23 21:02:00,62.0,48.0,-100.00,SE,136,1.0,5.0,60,0.00,,,0.00,6.000000,,2013-09-24 01:02:00,
2013-09-23 21:43:00,59.0,48.0,-100.00,ESE,119,1.0,4.0,68,0.00,,,0.00,0.000000,,2013-09-24 01:43:00,
2013-09-23 21:52:00,59.0,48.0,-100.00,ESE,119,1.0,4.0,68,0.00,,,0.00,0.000000,,2013-09-24 01:52:00,
2013-09-23 22:02:00,59.0,48.0,-100.00,ESE,119,1.0,4.0,68,0.00,,,0.00,0.000000,,2013-09-24 02:02:00,
2013-09-23 22:42:00,58.0,49.0,-100.00,ESE,122,1.0,4.0,72,0.00,,,0.00,0.000000,,2013-09-24 02:42:00,
2013-09-23 22:52:00,58.0,49.0,-100.00,ESE,122,1.0,4.0,72,0.00,,,0.00,0.000000,,2013-09-24 02:52:00,
2013-09-23 23:03:00,58.0,49.0,-100.00,ESE,122,1.0,4.0,72,0.00,,,0.00,0.000000,,2013-09-24 03:03:00,
2013-09-23 23:45:00,57.0,49.0,-100.00,SE,130,2.0,7.0,74,0.00,,,0.00,0.000000,,2013-09-24 03:45:00,
2013-09-23 23:55:00,57.0,49.0,-100.00,SE,130,2.0,7.0,74,0.00,,,0.00,0.000000,,2013-09-24 03:55:00,